This is the latest recevied weather packets stored in our database for station/object KA4YMY. If no packets are shown the sender has not sent any weather packets the latest 10 day(s).
| Time | Temp. | Humidity | Pressure | Rain* | Wind** | Luminosity | Snow |
|---|---|---|---|---|---|---|---|
| 1777973117 | 13.33° C | 74% | 1015.4 hPa | 0 mm | - | - | - |
| 1777972517 | 13.89° C | 74% | 1015.3 hPa | 0 mm | - | - | - |
| 1777971917 | 13.89° C | 73% | 1015.1 hPa | 0 mm | - | - | - |
| 1777971317 | 14.44° C | 73% | 1015.2 hPa | 0 mm | - | - | - |
| 1777970717 | 14.44° C | 72% | 1015 hPa | 0 mm | - | - | - |
| 1777970117 | 14.44° C | 71% | 1015 hPa | 0 mm | - | - | - |
| 1777969517 | 14.44° C | 70% | 1014.8 hPa | 0 mm | - | - | - |
| 1777968917 | 15° C | 70% | 1014.8 hPa | 0 mm | - | - | - |
| 1777968317 | 15° C | 69% | 1014.7 hPa | 0 mm | - | - | - |
| 1777967717 | 15° C | 69% | 1014.7 hPa | 0 mm | - | - | - |
| 1777966517 | 15.56° C | 67% | 1014.7 hPa | 0 mm | - | - | - |
| 1777965917 | 15.56° C | 67% | 1014.7 hPa | 0 mm | - | - | - |
| 1777965317 | 15.56° C | 66% | 1014.5 hPa | 0 mm | - | - | - |
| 1777964717 | 16.11° C | 65% | 1014.7 hPa | 0 mm | - | - | - |
| 1777964117 | 16.11° C | 64% | 1014.7 hPa | 0 mm | - | - | - |
| 1777963517 | 16.11° C | 64% | 1014.7 hPa | 0 mm | - | - | - |
| 1777962917 | 16.11° C | 63% | 1014.7 hPa | 0 mm | - | - | - |
| 1777962317 | 16.67° C | 62% | 1014.7 hPa | 0 mm | - | - | - |
| 1777961717 | 16.67° C | 61% | 1014.8 hPa | 0 mm | - | - | - |
| 1777961117 | 16.67° C | 60% | 1014.8 hPa | 0 mm | - | - | - |
| 1777960517 | 16.67° C | 60% | 1014.9 hPa | 0 mm | - | - | - |
| 1777959917 | 17.22° C | 59% | 1014.9 hPa | 0 mm | - | - | - |
| 1777959317 | 16.67° C | 57% | 1014.9 hPa | 0 mm | - | - | - |
| 1777958717 | 17.22° C | 56% | 1014.9 hPa | 0 mm | - | - | - |
| 1777958117 | 17.22° C | 53% | 1015.1 hPa | 0 mm | - | - | - |
* Rain latest hour (hover to see other rain measurements)
** Current wind speed in m/s (hover to see current wind gust speed)